Dickinson, TX

11:58 PM CDT on July 28, 2016 (GMT -0500)
Nicholstone | | Change Station

Elev 23 ft 29.48 °N, 95.04 °W | Updated 54 seconds ago

Scattered Clouds
Scattered Clouds
78.3 °F
Feels Like 82 °F
N
0.0
Wind Variable Wind from WSW
Gusts 0.0 mph

Today
High -- | Low -- °F
--% Chance of Precip.
Yesterday
High -- | Low -- °F
Precip. -- in
Pressure 30.00 in
Visibility 10.0 miles
Clouds Few 4000 ft
Scattered Clouds 25000 ft
Heat Index 82 °F
Dew Point 78 °F
Humidity 99%
Rainfall 0.05 in
Snow Depth Not available.
6:38 AM 8:14 PM
Waning Crescent, 25% visible
METAR KEFD 290450Z 13003KT 10SM FEW040 SCT250 28/25 A3000
Pressure 30.00 in
Visibility 10.0 miles
Clouds Few 4000 ft
Scattered Clouds 25000 ft
Heat Index 82 °F
Dew Point 78 °F
Humidity 99%
Rainfall 0.05 in
Snow Depth Not available.
6:38 AM 8:14 PM
Waning Crescent, 25% visible
METAR KEFD 290450Z 13003KT 10SM FEW040 SCT250 28/25 A3000

10-Day Weather Forecast

Almanac

Astronomy

Jul. 28, 2016 Rise Set
Actual Time
Civil Twilight
Nautical Twilight
Astronomical Twilight
Moon
Length of Visible Light
Length of Day
Tomorrow will be .
, % of the Moon is Illuminated

Today's Extremes

State Highs State Lows

Community

WunderPhotos

Upload Photos

1,928,294 photos uploaded!

WunderBlog® & News

Nearby

Air Quality

  Air Quality AQ Index Pollutant
Not available.

Snow Depth

Station Depth Elevation

Earthquake Activity

City Distance Mag. Time & Date
Minimum magnitude displayed is 2.5.

Coastal Water Temperatures

Place Temperature

Stations

Nearby Weather Stations

Station Location Temp. Windchill Dew Point Humidity Wind Precip. Elev Updated Type
                   

Watches & Warnings

There are currently no watches in effect.